Lexington, NE

2:02 AM CST on November 19, 2017 (GMT -0600)
Kelly

Weather History for KLXN - October, 2013

Change the Weather History Date:

Friday, October 4, 2013

  Actual Average Record
Temperature  
Mean Temperature 54 °F -  
Max Temperature 71 °F 67 °F 89 °F (2011)
Min Temperature 39 °F 40 °F 30 °F (2014)
Degree Days  
Heating Degree Days 10    
Growing Degree Days 4 (Base 50)    
Moisture  
Dew Point 50 °F    
Average Humidity 79    
Maximum Humidity 96    
Minimum Humidity 58    
Precipitation  
Precipitation 0.00 in - - ()
Sea Level Pressure  
Sea Level Pressure 29.75 in    
Wind  
Wind Speed 16 mph (NW)    
Max Wind Speed 34 mph    
Max Gust Speed 43 mph    
Visibility 8 miles    
Events      
Averages and records for this station are not official NWS values.
T = Trace of Precipitation, MM = Missing Value Source: NWS Daily Summary

Daily Weather History Graph

Daily Weather History Graph

Search for Another Location

Airport or City:

Trip Planner

Search our weather history database for the weather conditions in past years. The results will help you decide how hot, cold, wet, or windy it might be!

Date:

Astronomy

Oct. 04, 2013 Rise Set
Actual Time 7:39 AM CDT 7:15 PM CDT
Civil Twilight 7:11 AM CDT 7:43 PM CDT
Nautical Twilight 6:39 AM CDT 8:14 PM CDT
Astronomical Twilight 6:07 AM CDT 8:46 PM CDT
Moon 7:16 AM CDT (10/4) 6:58 PM CDT (10/4)
Length of Visible Light 12h 31m
Length of Day
11h 36m
Waning Crescent, 0% of the Moon is Illuminated
Oct 4
Waning Crescent
Oct 4
New
Oct 11
First Quarter
Oct 18
Full
Oct 26
Last Quarter

Hourly Weather History & Observations

Time (CDT) Temp. Windchill Dew Point Humidity Pressure Visibility Wind Dir Wind Speed Gust Speed Precip Events Conditions
12:15 AM 59.9 °F - 57.2 °F 91% 29.73 in 10.0 mi NE 15.0 mph 21.9 mph N/A   Overcast
12:35 AM 59.5 °F - 56.7 °F 90% 29.72 in 10.0 mi ENE 13.8 mph 19.6 mph N/A   Overcast
12:55 AM 59.9 °F - 57.2 °F 91% 29.71 in 10.0 mi ENE 13.8 mph 21.9 mph N/A   Overcast
1:15 AM 59.9 °F - 57.2 °F 91% 29.70 in 10.0 mi ENE 16.1 mph 21.9 mph N/A   Overcast
1:35 AM 59.5 °F - 57.2 °F 92% 29.69 in 10.0 mi NE 16.1 mph 23.0 mph N/A   Overcast
1:55 AM 59.4 °F - 57.2 °F 93% 29.69 in 10.0 mi ENE 13.8 mph 21.9 mph N/A   Overcast
2:15 AM 59.0 °F - 57.2 °F 94% 29.70 in 7.0 mi NE 16.1 mph 21.9 mph N/A   Overcast
2:35 AM 58.6 °F - 57.2 °F 95% 29.69 in 5.0 mi ENE 16.1 mph 21.9 mph N/A   Overcast
2:55 AM 58.5 °F - 57.2 °F 96% 29.69 in 5.0 mi NE 15.0 mph - N/A   Overcast
3:15 AM 59.0 °F - 57.6 °F 95% 29.68 in 5.0 mi NE 13.8 mph 17.3 mph N/A   Overcast
3:35 AM 59.9 °F - 58.3 °F 94% 29.67 in 7.0 mi ENE 12.7 mph - N/A   Overcast
3:55 AM 60.1 °F - 58.5 °F 94% 29.67 in 7.0 mi ENE 15.0 mph - N/A   Overcast
4:15 AM 59.9 °F - 58.5 °F 95% 29.67 in 5.0 mi ENE 11.5 mph - N/A   Overcast
4:35 AM 60.1 °F - 58.6 °F 95% 29.67 in 5.0 mi ENE 12.7 mph - N/A   Overcast
4:55 AM 59.5 °F - 58.3 °F 96% 29.66 in 4.0 mi ENE 9.2 mph - N/A   Overcast
5:15 AM 59.5 °F - 58.3 °F 96% 29.66 in 5.0 mi ENE 13.8 mph 18.4 mph N/A   Overcast
5:35 AM 59.9 °F - 58.5 °F 95% 29.66 in 4.0 mi ENE 10.4 mph - N/A   Overcast
5:55 AM 59.9 °F - 58.6 °F 96% 29.66 in 4.0 mi ENE 11.5 mph - N/A   Overcast
6:15 AM 59.9 °F - 58.6 °F 96% 29.65 in 4.0 mi ENE 13.8 mph - N/A   Overcast
6:35 AM 60.3 °F - 59.0 °F 96% 29.64 in 4.0 mi ENE 11.5 mph - N/A   Overcast
6:55 AM 60.8 °F - 59.4 °F 95% 29.64 in 5.0 mi East 13.8 mph - N/A   Overcast
7:35 AM 61.5 °F - 60.3 °F 96% 29.64 in 7.0 mi East 9.2 mph - N/A   Overcast
7:55 AM 61.9 °F - 60.4 °F 95% 29.64 in 5.0 mi East 9.2 mph - N/A   Overcast
8:15 AM 62.4 °F - 61.0 °F 95% 29.63 in 5.0 mi East 8.1 mph - N/A   Overcast
8:35 AM 63.5 °F - 61.9 °F 94% 29.63 in 4.0 mi East 8.1 mph - N/A   Overcast
8:55 AM 63.9 °F - 62.6 °F 96% 29.64 in 4.0 mi ESE 8.1 mph - N/A   Overcast
9:15 AM 64.4 °F - 62.8 °F 94% 29.63 in 4.0 mi ESE 10.4 mph - N/A   Overcast
9:35 AM 65.5 °F - 63.5 °F 93% 29.63 in 5.0 mi ESE 9.2 mph - N/A   Overcast
9:55 AM 66.2 °F - 63.1 °F 90% 29.63 in 10.0 mi SE 9.2 mph - N/A   Mostly Cloudy
10:15 AM 67.1 °F - 62.1 °F 84% 29.63 in 10.0 mi SSE 8.1 mph - N/A   Overcast
10:35 AM 68.2 °F - 61.0 °F 78% 29.63 in 10.0 mi SSE 9.2 mph - N/A   Mostly Cloudy
10:55 AM 69.6 °F - 60.4 °F 73% 29.62 in 10.0 mi SSE 9.2 mph - N/A   Scattered Clouds
11:15 AM 68.9 °F - 60.3 °F 74% 29.62 in 10.0 mi South 9.2 mph - N/A   Mostly Cloudy
11:35 AM 70.9 °F - 60.1 °F 69% 29.62 in 10.0 mi South 6.9 mph 17.3 mph N/A   Mostly Cloudy
11:55 AM 70.9 °F - 59.4 °F 67% 29.63 in 10.0 mi SSW 11.5 mph 18.4 mph N/A   Mostly Cloudy
12:15 PM 69.8 °F - 58.8 °F 68% 29.64 in 10.0 mi SW 8.1 mph - N/A   Mostly Cloudy
12:35 PM 69.1 °F - 60.3 °F 73% 29.64 in 10.0 mi WSW 12.7 mph - N/A   Overcast
12:55 PM 70.5 °F - 59.9 °F 69% 29.66 in 10.0 mi WSW 15.0 mph 19.6 mph N/A   Overcast
1:15 PM 69.3 °F - 59.0 °F 70% 29.67 in 10.0 mi WSW 13.8 mph 25.3 mph N/A   Scattered Clouds
1:35 PM 67.3 °F - 58.3 °F 73% 29.69 in 10.0 mi West 19.6 mph 26.5 mph N/A   Mostly Cloudy
1:55 PM 64.6 °F - 56.3 °F 74% 29.70 in 10.0 mi West 21.9 mph 29.9 mph N/A   Overcast
2:15 PM 61.0 °F - 52.5 °F 74% 29.71 in 7.0 mi West 23.0 mph 34.5 mph N/A   Overcast
2:35 PM 60.3 °F - 50.7 °F 71% 29.73 in 10.0 mi West 24.2 mph 29.9 mph N/A   Mostly Cloudy
2:55 PM 59.0 °F - 48.9 °F 69% 29.74 in 10.0 mi West 21.9 mph 29.9 mph N/A   Scattered Clouds
3:15 PM 56.8 °F - 47.5 °F 71% 29.75 in 10.0 mi West 20.7 mph 27.6 mph N/A   Scattered Clouds
3:35 PM 58.5 °F - 47.1 °F 66% 29.76 in 10.0 mi West 21.9 mph 27.6 mph N/A   Scattered Clouds
3:55 PM 58.5 °F - 46.4 °F 64% 29.77 in 10.0 mi West 21.9 mph 28.8 mph N/A   Scattered Clouds
4:15 PM 57.9 °F - 44.4 °F 61% 29.78 in 10.0 mi West 25.3 mph 33.4 mph N/A   Scattered Clouds
4:35 PM 56.8 °F - 43.0 °F 60% 29.80 in 10.0 mi West 23.0 mph 34.5 mph N/A   Scattered Clouds
4:55 PM 55.4 °F - 41.4 °F 59% 29.83 in 10.0 mi West 27.6 mph 35.7 mph N/A   Scattered Clouds
5:15 PM 53.4 °F - 40.6 °F 62% 29.84 in 10.0 mi West 21.9 mph 33.4 mph N/A   Scattered Clouds
5:35 PM 53.6 °F - 39.0 °F 58% 29.86 in 10.0 mi West 24.2 mph 31.1 mph N/A   Scattered Clouds
5:55 PM 51.1 °F - 37.6 °F 60% 29.87 in 10.0 mi West 20.7 mph 27.6 mph N/A   Scattered Clouds
6:15 PM 49.1 °F - 35.8 °F 60% 29.89 in 10.0 mi West 24.2 mph 35.7 mph N/A   Scattered Clouds
6:35 PM 48.0 °F - 35.1 °F 61% 29.89 in 10.0 mi West 23.0 mph 32.2 mph N/A   Clear
6:55 PM 45.9 °F 37.0 °F 34.0 °F 63% 29.90 in 10.0 mi West 26.5 mph 38.0 mph N/A   Clear
7:15 PM 44.8 °F 35.5 °F 34.0 °F 66% 29.91 in 10.0 mi WNW 26.5 mph 36.8 mph N/A   Scattered Clouds
7:35 PM 43.3 °F 33.4 °F 32.9 °F 67% 29.88 in 10.0 mi WNW 27.6 mph 36.8 mph N/A   Scattered Clouds
7:55 PM 43.0 °F 32.7 °F 32.2 °F 66% 29.90 in 10.0 mi WNW 28.8 mph 38.0 mph N/A   Clear
8:15 PM 42.1 °F 30.6 °F 31.8 °F 67% 29.90 in 10.0 mi WNW 34.5 mph 42.6 mph N/A   Clear
8:35 PM 41.4 °F 30.9 °F 31.1 °F 67% 29.92 in 10.0 mi WNW 26.5 mph 39.1 mph N/A   Clear
8:55 PM 41.0 °F 30.5 °F 31.1 °F 68% 29.92 in 10.0 mi WNW 26.5 mph 35.7 mph N/A   Clear
9:15 PM 40.6 °F 29.8 °F 31.1 °F 69% 29.94 in 10.0 mi WNW 27.6 mph 35.7 mph N/A   Clear
9:35 PM 40.6 °F 30.0 °F 30.9 °F 68% 29.95 in 10.0 mi WNW 26.5 mph 41.4 mph N/A   Clear
9:55 PM 40.3 °F 30.4 °F 30.7 °F 69% 29.97 in 10.0 mi WNW 21.9 mph 34.5 mph N/A   Clear
10:15 PM 40.1 °F 29.2 °F 30.2 °F 68% 29.98 in 10.0 mi WNW 26.5 mph 35.7 mph N/A   Clear
10:35 PM 40.1 °F 29.9 °F 30.2 °F 68% 29.97 in 10.0 mi WNW 23.0 mph 29.9 mph N/A   Clear
10:55 PM 39.7 °F 29.5 °F 30.7 °F 70% 29.97 in 10.0 mi WNW 23.0 mph 28.8 mph N/A   Clear
11:15 PM 40.1 °F 31.0 °F 30.9 °F 70% 29.97 in 10.0 mi WNW 18.4 mph 31.1 mph N/A   Clear
11:35 PM 39.7 °F 30.9 °F 30.7 °F 70% 29.98 in 10.0 mi WNW 17.3 mph 26.5 mph N/A   Clear
11:55 PM 40.1 °F 30.5 °F 30.9 °F 70% 29.98 in 10.0 mi WNW 20.7 mph 27.6 mph N/A   Clear